Weather History for Charleston, SC

Change the Weather History Date:

Friday, January 31, 2014

  Actual Average (KCHS) Record (KCHS)
Temperature  
Mean Temperature 44 °F 49 °F  
Max Temperature 55 °F 60 °F 81 °F (1975)
Min Temperature 33 °F 38 °F 15 °F (1966)
Degree Days  
Heating Degree Days 21 16  
Month to date heating degree days 520  
Since 1 July heating degree days 1259  
Cooling Degree Days 0 0  
Month to date cooling degree days 2  
Year to date cooling degree days 2  
Moisture  
Dew Point 37 °F    
Average Humidity 79    
Maximum Humidity 100    
Minimum Humidity 58    
Precipitation  
Precipitation 0.00 in 0.12 in 0.83 in (1959)
Month to date precipitation 3.71  
Year to date precipitation 3.71  
Sea Level Pressure  
Sea Level Pressure 30.21 in    
Wind  
Wind Speed 2 mph (NNE)    
Max Wind Speed 7 mph    
Max Gust Speed -    
Visibility 10 miles    
Events      
T = Trace of Precipitation, MM = Missing Value Source: NWS Daily Summary

Daily Weather History Graph

Daily Weather History Graph

Search for Another Location

Airport:

Trip Planner

Search our weather history database for the weather conditions in past years. The results will help you decide how hot, cold, wet, or windy it might be!

Date:

Astronomy

Jan. 31, 2014 Rise Set
Actual Time 7:15 AM EST 5:51 PM EST
Civil Twilight 6:49 AM EST 6:17 PM EST
Nautical Twilight 6:20 AM EST 6:47 PM EST
Astronomical Twilight 5:50 AM EST 7:16 PM EST
Moon 7:29 AM EST (1/31) 7:07 PM EST (1/31)
Length of Visible Light 11h 28m
Length of Day
10h 36m
New Moon, 1% of the Moon is Illuminated
Jan 31
New Moon
Feb 6
First Quarter
Feb 14
Full
Feb 22
Last Quarter
Mar 1
New

Hourly Weather History & Observations

Time (EST) Temp. Windchill Dew Point Humidity Pressure Visibility Wind Dir Wind Speed Gust Speed Precip Events Conditions
12:15 AM 33.8 °F - 30.2 °F 87% 30.22 in 10.0 mi North - - 0.00 in   Partly Cloudy
12:35 AM 33.8 °F - 30.2 °F 87% 30.21 in 10.0 mi North - - 0.00 in   Mostly Cloudy
12:55 AM 33.8 °F - 30.2 °F 87% 30.21 in 10.0 mi North - - 0.00 in   Overcast
1:15 AM 33.8 °F - 30.2 °F 87% 30.20 in 10.0 mi North - - 0.00 in   Overcast
1:35 AM 33.8 °F - 32.0 °F 93% 30.21 in 10.0 mi North - - 0.00 in   Overcast
1:55 AM 33.8 °F - 30.2 °F 87% 30.20 in 10.0 mi North - - 0.00 in   Overcast
2:15 AM 35.6 °F - 28.4 °F 75% 30.21 in 10.0 mi North - - 0.00 in   Overcast
2:35 AM 35.6 °F - 28.4 °F 75% 30.22 in 10.0 mi North - - 0.00 in   Overcast
2:55 AM 35.6 °F - 28.4 °F 75% 30.21 in 10.0 mi North - - 0.00 in   Overcast
3:15 AM 35.6 °F - 28.4 °F 75% 30.21 in 10.0 mi North - - 0.00 in   Overcast
3:35 AM 35.6 °F 31.7 °F 28.4 °F 75% 30.21 in 10.0 mi North 4.6 mph - 0.00 in   Overcast
3:55 AM 35.6 °F - 30.2 °F 81% 30.21 in 10.0 mi Calm Calm - 0.00 in   Overcast
4:15 AM 35.6 °F - 28.4 °F 75% 30.21 in 10.0 mi Calm Calm - 0.00 in   Overcast
4:35 AM 35.6 °F - 30.2 °F 81% 30.21 in 10.0 mi Calm Calm - 0.00 in   Overcast
4:55 AM 35.6 °F - 28.4 °F 75% 30.20 in 10.0 mi Calm Calm - 0.00 in   Overcast
5:15 AM 35.6 °F 32.8 °F 30.2 °F 81% 30.19 in 10.0 mi North 3.5 mph - 0.00 in   Overcast
5:35 AM 35.6 °F 31.7 °F 30.2 °F 81% 30.19 in 10.0 mi North 4.6 mph - 0.00 in   Overcast
5:55 AM 35.6 °F 30.7 °F 30.2 °F 81% 30.19 in 10.0 mi NNW 5.8 mph - 0.00 in   Overcast
6:15 AM 35.6 °F - 30.2 °F 81% 30.20 in 10.0 mi Calm Calm - 0.00 in   Overcast
6:35 AM 35.6 °F - 30.2 °F 81% 30.20 in 10.0 mi Calm Calm - 0.00 in   Overcast
6:55 AM 35.6 °F - 30.2 °F 81% 30.21 in 10.0 mi Calm Calm - 0.00 in   Overcast
7:15 AM 35.6 °F - 30.2 °F 81% 30.21 in 10.0 mi Calm Calm - 0.00 in   Overcast
7:35 AM 35.6 °F - 30.2 °F 81% 30.21 in 10.0 mi Calm Calm - 0.00 in   Overcast
7:55 AM 37.4 °F 34.9 °F 32.0 °F 81% 30.23 in 10.0 mi NNW 3.5 mph - 0.00 in   Overcast
8:15 AM 37.4 °F 34.9 °F 32.0 °F 81% 30.23 in 10.0 mi North 3.5 mph - 0.00 in   Light Drizzle
8:35 AM 37.4 °F - 32.0 °F 81% 30.24 in 10.0 mi Calm Calm - 0.00 in   Overcast
8:55 AM 37.4 °F 33.8 °F 32.0 °F 81% 30.25 in 10.0 mi North 4.6 mph - 0.00 in   Overcast
9:15 AM 37.4 °F 33.8 °F 32.0 °F 81% 30.26 in 10.0 mi NNW 4.6 mph - 0.00 in   Overcast
9:35 AM 39.2 °F 37.0 °F 30.2 °F 70% 30.26 in 10.0 mi North 3.5 mph - 0.00 in   Overcast
9:55 AM 39.2 °F 35.0 °F 32.0 °F 75% 30.27 in 10.0 mi North 5.8 mph - 0.00 in   Overcast
10:15 AM 42.8 °F 38.6 °F 33.8 °F 70% 30.27 in 10.0 mi NNW 6.9 mph - 0.00 in   Overcast
10:35 AM 42.8 °F 39.3 °F 33.8 °F 70% 30.27 in 10.0 mi North 5.8 mph - 0.00 in   Overcast
10:55 AM 42.8 °F 38.6 °F 35.6 °F 76% 30.25 in 10.0 mi North 6.9 mph - 0.00 in   Overcast
11:15 AM 44.6 °F 40.7 °F 35.6 °F 71% 30.25 in 10.0 mi North 6.9 mph - 0.00 in   Mostly Cloudy
11:35 AM 48.2 °F - 39.2 °F 71% 30.24 in 10.0 mi North 5.8 mph - 0.00 in   Mostly Cloudy
11:55 AM 48.2 °F - 39.2 °F 71% 30.23 in 10.0 mi North 5.8 mph - 0.00 in   Partly Cloudy
12:15 PM 51.8 °F - 39.2 °F 62% 30.23 in 10.0 mi Calm Calm - 0.00 in   Clear
12:35 PM 50.0 °F - 39.2 °F 66% 30.22 in 10.0 mi Calm Calm - 0.00 in   Clear
12:55 PM 53.6 °F - 42.8 °F 67% 30.20 in 10.0 mi Calm Calm - 0.00 in   Clear
1:15 PM 55.4 °F - 42.8 °F 63% 30.19 in 10.0 mi Calm Calm - 0.00 in   Clear
1:35 PM 55.4 °F - 42.8 °F 63% 30.19 in 10.0 mi Calm Calm - 0.00 in   Clear
1:55 PM 53.6 °F - 41.0 °F 62% 30.18 in 10.0 mi North 5.8 mph - 0.00 in   Partly Cloudy
2:15 PM 55.4 °F - 41.0 °F 58% 30.18 in 10.0 mi NNE 4.6 mph - 0.00 in   Mostly Cloudy
2:35 PM 55.4 °F - 41.0 °F 58% 30.17 in 10.0 mi Calm Calm - 0.00 in   Overcast
2:55 PM 55.4 °F - 42.8 °F 63% 30.18 in 10.0 mi Calm Calm - 0.00 in   Overcast
3:15 PM 55.4 °F - 44.6 °F 67% 30.17 in 10.0 mi SSE 6.9 mph - 0.00 in   Mostly Cloudy
3:35 PM 53.6 °F - 44.6 °F 72% 30.18 in 10.0 mi South 6.9 mph - 0.00 in   Scattered Clouds
3:55 PM 53.6 °F - 44.6 °F 72% 30.17 in 10.0 mi South 5.8 mph - 0.00 in   Clear
4:15 PM 53.6 °F - 44.6 °F 72% 30.17 in 10.0 mi South 5.8 mph - 0.00 in   Clear
4:35 PM 53.6 °F - 44.6 °F 72% 30.17 in 10.0 mi South 4.6 mph - 0.00 in   Clear
4:55 PM 53.6 °F - 44.6 °F 72% 30.18 in 10.0 mi South 6.9 mph - 0.00 in   Clear
5:15 PM 51.8 °F - 44.6 °F 76% 30.18 in 10.0 mi South 5.8 mph - 0.00 in   Clear
5:35 PM 48.2 °F - 42.8 °F 82% 30.19 in 10.0 mi South 3.5 mph - 0.00 in   Scattered Clouds
5:55 PM 48.2 °F - 42.8 °F 82% 30.19 in 10.0 mi Calm Calm - 0.00 in   Partly Cloudy
6:15 PM 46.4 °F 45.2 °F 42.8 °F 87% 30.19 in 10.0 mi SSE 3.5 mph - 0.00 in   Clear
6:35 PM 44.6 °F 43.1 °F 41.0 °F 87% 30.20 in 10.0 mi South 3.5 mph - 0.00 in   Clear
6:55 PM 46.4 °F - 42.8 °F 87% 30.19 in 10.0 mi Calm Calm - 0.00 in   Clear
7:15 PM 44.6 °F - 41.0 °F 87% 30.19 in 10.0 mi Calm Calm - 0.00 in   Clear
7:35 PM 42.8 °F - 41.0 °F 93% 30.20 in 10.0 mi Calm Calm - 0.00 in   Clear
7:55 PM 42.8 °F - 41.0 °F 93% 30.20 in 9.0 mi Calm Calm - 0.00 in   Clear
8:15 PM 42.8 °F - 42.8 °F 100% 30.20 in 9.0 mi Calm Calm - 0.00 in   Clear
8:35 PM 44.6 °F 43.1 °F 42.8 °F 93% 30.20 in 10.0 mi SE 3.5 mph - 0.00 in   Clear
8:55 PM 44.6 °F - 42.8 °F 93% 30.19 in 10.0 mi Calm Calm - 0.00 in   Clear
9:15 PM 44.6 °F - 42.8 °F 93% 30.19 in 9.0 mi Calm Calm - 0.00 in   Clear
9:35 PM 42.8 °F - 41.0 °F 93% 30.20 in 8.0 mi Calm Calm - 0.00 in   Clear
9:55 PM 42.8 °F - 41.0 °F 93% 30.20 in 9.0 mi Calm Calm - 0.00 in   Clear
10:15 PM 42.8 °F - 39.2 °F 87% 30.20 in 8.0 mi Calm Calm - 0.00 in   Clear
10:35 PM 42.8 °F - 39.2 °F 87% 30.20 in 8.0 mi Calm Calm - 0.00 in   Clear
10:55 PM 42.8 °F - 41.0 °F 93% 30.20 in 6.0 mi Calm Calm - 0.00 in   Clear
11:15 PM 41.0 °F - 39.2 °F 93% 30.20 in 5.0 mi Calm Calm - 0.00 in   Clear
11:35 PM 41.0 °F - 39.2 °F 93% 30.19 in 5.0 mi Calm Calm - 0.00 in   Scattered Clouds
11:55 PM 42.8 °F - 42.8 °F 100% 30.20 in 5.0 mi Calm Calm - 0.00 in   Overcast